| time (UTC) | temp F | wind direction | speed MPH | gust MPH | rain 1hr in | rain 24hr in | rain mn in | humidity % | barometer mb |
| 20260831195541 | 75 | 235 | 1.0 | 5.0 | 0.00 | 0.00 | 0.00 | 35 | 1019.6 |
| 20260831194544 | 75 | 247 | 1.0 | 4.0 | 0.00 | 0.00 | 0.00 | 36 | 1019.8 |
| 20260831193641 | 75 | 217 | 3.0 | 5.0 | 0.00 | 0.00 | 0.00 | 35 | 1019.6 |
| 20260831191642 | 74 | 192 | 2.0 | 6.0 | 0.00 | 0.00 | 0.00 | 36 | 1019.7 |
| 20260831190641 | 74 | 228 | 2.0 | 6.0 | 0.00 | 0.00 | 0.00 | 36 | 1019.8 |
| 20260831184643 | 74 | 227 | 2.0 | 8.0 | 0.00 | 0.00 | 0.00 | 37 | 1019.8 |
| 20260831183740 | 74 | 242 | 5.0 | 10.0 | 0.00 | 0.00 | 0.00 | 38 | 1019.6 |
| 20260831182741 | 74 | 346 | 2.0 | 6.0 | 0.00 | 0.00 | 0.00 | 37 | 1019.6 |
| 20260831181742 | 75 | 268 | 1.0 | 3.0 | 0.00 | 0.00 | 0.00 | 36 | 1019.6 |
| 20260831180743 | 76 | 29 | 0.0 | 2.0 | 0.00 | 0.00 | 0.00 | 36 | 1019.5 |
| 20260831175840 | 74 | 350 | 1.0 | 3.0 | 0.00 | 0.00 | 0.00 | 37 | 1019.5 |
| 20260831174856 | 75 | 4 | 1.0 | 3.0 | 0.00 | 0.00 | 0.00 | 36 | 1019.5 |
| 20260831173041 | 75 | 156 | 1.0 | 5.0 | 0.00 | 0.00 | 0.00 | 37 | 1019.5 |
| 20260831172041 | 74 | 45 | 1.0 | 2.0 | 0.00 | 0.00 | 0.00 | 38 | 1019.5 |
| 20260831171042 | 73 | 84 | 1.0 | 2.0 | 0.00 | 0.00 | 0.00 | 39 | 1019.3 |
| 20260831165044 | 71 | 7 | 3.0 | 4.0 | 0.00 | 0.00 | 0.00 | 41 | 1019.4 |
| 20260831164942 | 71 | 20 | 1.0 | 3.0 | 0.00 | 0.00 | 0.00 | 42 | 1019.4 |
| 20260831162942 | 70 | 67 | 0.0 | 0.0 | 0.00 | 0.00 | 0.00 | 44 | 1019.5 |
| 20260831162040 | 69 | 9 | 0.0 | 2.0 | 0.00 | 0.00 | 0.00 | 51 | 1019.4 |
| 20260831161043 | 66 | 135 | 0.0 | 0.0 | 0.00 | 0.00 | 0.00 | 61 | 1019.6 |
| 20260831160041 | 63 | 135 | 0.0 | 0.0 | 0.00 | 0.00 | 0.00 | 66 | 1019.6 |
| 20260831155942 | 63 | 135 | 0.0 | 0.0 | 0.00 | 0.00 | 0.00 | 67 | 1019.6 |
| 20260831155841 | 63 | 135 | 0.0 | 0.0 | 0.00 | 0.00 | 0.00 | 67 | 1019.6 |
| 20260831154858 | 61 | 135 | 0.0 | 0.0 | 0.00 | 0.00 | 0.00 | 74 | 1019.7 |
| 20260831153940 | 58 | 135 | 0.0 | 0.0 | 0.00 | 0.00 | 0.00 | 73 | 1019.7 |
| 20260831152941 | 56 | 135 | 0.0 | 0.0 | 0.00 | 0.00 | 0.00 | 76 | 1019.7 |
| 20260831151941 | 54 | 135 | 0.0 | 0.0 | 0.00 | 0.00 | 0.00 | 81 | 1019.8 |
| 20260831150042 | 49 | 135 | 0.0 | 0.0 | 0.00 | 0.00 | 0.00 | 95 | 1019.5 |
| 20260831145042 | 45 | 135 | 0.0 | 0.0 | 0.00 | 0.00 | 0.00 | 97 | 1019.5 |
| 20260831144041 | 43 | 135 | 0.0 | 0.0 | 0.00 | 0.00 | 0.00 | 98 | 1019.3 |
| 20260831143943 | 43 | 135 | 0.0 | 0.0 | 0.00 | 0.00 | 0.00 | 97 | 1019.3 |
| 20260831143041 | 43 | 135 | 0.0 | 0.0 | 0.00 | 0.00 | 0.00 | 97 | 1019.3 |
| 20260831142042 | 43 | 135 | 0.0 | 0.0 | 0.00 | 0.00 | 0.00 | 96 | 1019.3 |
| 20260831141140 | 42 | 135 | 0.0 | 0.0 | 0.00 | 0.00 | 0.00 | 97 | 1019.2 |
| 20260831140142 | 42 | 135 | 0.0 | 0.0 | 0.00 | 0.00 | 0.00 | 96 | 1019.1 |
| 20260831135142 | 42 | 135 | 0.0 | 0.0 | 0.00 | 0.00 | 0.00 | 96 | 1019.1 |
| 20260831133241 | 42 | 135 | 0.0 | 0.0 | 0.00 | 0.00 | 0.00 | 96 | 1018.9 |
| 20260831132340 | 42 | 135 | 0.0 | 0.0 | 0.00 | 0.00 | 0.00 | 96 | 1018.9 |
| 20260831132243 | 42 | 135 | 0.0 | 0.0 | 0.00 | 0.00 | 0.00 | 96 | 1019.0 |
| 20260831131243 | 42 | 135 | 0.0 | 0.0 | 0.00 | 0.00 | 0.00 | 96 | 1018.9 |
| 20260831130339 | 42 | 135 | 0.0 | 0.0 | 0.00 | 0.00 | 0.00 | 96 | 1019.0 |
| 20260831125341 | 42 | 135 | 0.0 | 0.0 | 0.00 | 0.00 | 0.00 | 96 | 1019.1 |
| 20260831124341 | 43 | 135 | 0.0 | 0.0 | 0.00 | 0.00 | 0.00 | 96 | 1019.0 |
| 20260831123340 | 43 | 135 | 0.0 | 0.0 | 0.00 | 0.00 | 0.00 | 95 | 1019.0 |
| 20260831122439 | 43 | 135 | 0.0 | 0.0 | 0.00 | 0.00 | 0.00 | 95 | 1018.9 |
| 20260831122339 | 43 | 135 | 0.0 | 0.0 | 0.00 | 0.00 | 0.00 | 95 | 1018.9 |
| 20260831115242 | 43 | 135 | 0.0 | 0.0 | 0.00 | 0.00 | 0.00 | 94 | 1019.0 |
| 20260831115141 | 43 | 135 | 0.0 | 0.0 | 0.00 | 0.00 | 0.00 | 95 | 1019.0 |
| 20260831113241 | 43 | 135 | 0.0 | 0.0 | 0.00 | 0.00 | 0.00 | 94 | 1019.2 |
| 20260831112339 | 43 | 135 | 0.0 | 0.0 | 0.00 | 0.00 | 0.00 | 94 | 1019.3 |
| 20260831111343 | 44 | 135 | 0.0 | 0.0 | 0.00 | 0.00 | 0.00 | 93 | 1019.3 |
| 20260831110339 | 44 | 135 | 0.0 | 0.0 | 0.00 | 0.00 | 0.00 | 93 | 1019.2 |
| 20260831105342 | 44 | 135 | 0.0 | 0.0 | 0.00 | 0.00 | 0.00 | 92 | 1019.3 |
| 20260831104341 | 44 | 135 | 0.0 | 0.0 | 0.00 | 0.00 | 0.00 | 93 | 1019.4 |
| 20260831101442 | 45 | 135 | 0.0 | 0.0 | 0.00 | 0.00 | 0.00 | 92 | 1019.4 |
| 20260831100539 | 45 | 135 | 0.0 | 0.0 | 0.00 | 0.00 | 0.00 | 91 | 1019.3 |
| 20260831100440 | 45 | 135 | 0.0 | 0.0 | 0.00 | 0.00 | 0.00 | 90 | 1019.4 |
| 20260831095442 | 45 | 135 | 0.0 | 0.0 | 0.00 | 0.00 | 0.00 | 90 | 1019.3 |
| 20260831094442 | 45 | 135 | 0.0 | 0.0 | 0.00 | 0.00 | 0.00 | 91 | 1019.3 |
| 20260831093541 | 45 | 135 | 0.0 | 0.0 | 0.00 | 0.00 | 0.00 | 90 | 1019.3 |
| 20260831092640 | 45 | 135 | 0.0 | 0.0 | 0.00 | 0.00 | 0.00 | 90 | 1019.3 |
| 20260831092543 | 45 | 135 | 0.0 | 0.0 | 0.00 | 0.00 | 0.00 | 90 | 1019.3 |
| 20260831091541 | 46 | 135 | 0.0 | 0.0 | 0.00 | 0.00 | 0.00 | 89 | 1019.1 |
| 20260831091442 | 46 | 135 | 0.0 | 0.0 | 0.00 | 0.00 | 0.00 | 90 | 1019.1 |
| 20260831090441 | 46 | 135 | 0.0 | 0.0 | 0.00 | 0.00 | 0.00 | 89 | 1019.2 |
| 20260831085540 | 46 | 135 | 0.0 | 0.0 | 0.00 | 0.00 | 0.00 | 89 | 1019.3 |
| 20260831084542 | 46 | 135 | 0.0 | 0.0 | 0.00 | 0.00 | 0.00 | 89 | 1019.3 |
| 20260831084442 | 46 | 135 | 0.0 | 0.0 | 0.00 | 0.00 | 0.00 | 89 | 1019.3 |
| 20260831083539 | 46 | 135 | 0.0 | 0.0 | 0.00 | 0.00 | 0.00 | 89 | 1019.3 |
| 20260831082541 | 46 | 135 | 0.0 | 0.0 | 0.00 | 0.00 | 0.00 | 87 | 1019.4 |
| 20260831081540 | 47 | 135 | 0.0 | 0.0 | 0.00 | 0.00 | 0.00 | 88 | 1019.5 |
| 20260831080543 | 47 | 135 | 0.0 | 0.0 | 0.00 | 0.00 | 0.00 | 88 | 1019.6 |
| 20260831080441 | 47 | 135 | 0.0 | 0.0 | 0.00 | 0.00 | 0.00 | 87 | 1019.6 |
| 20260831075539 | 47 | 135 | 0.0 | 0.0 | 0.00 | 0.00 | 0.00 | 88 | 1019.6 |
| 20260831074541 | 47 | 135 | 0.0 | 0.0 | 0.00 | 0.00 | 0.00 | 87 | 1019.6 |
| 20260831074441 | 47 | 135 | 0.0 | 0.0 | 0.00 | 0.00 | 0.00 | 87 | 1019.7 |
| 20260831072440 | 48 | 135 | 0.0 | 0.0 | 0.00 | 0.00 | 0.00 | 86 | 1019.7 |
| 20260831070441 | 48 | 135 | 0.0 | 0.0 | 0.00 | 0.00 | 0.00 | 85 | 1019.9 |
| 20260831063532 | 48 | 135 | 0.0 | 0.0 | 0.00 | 0.00 | 0.00 | 84 | 1020.0 |
| 20260831062532 | 49 | 135 | 0.0 | 0.0 | 0.00 | 0.00 | 0.00 | 83 | 1020.0 |
| 20260831061532 | 49 | 135 | 0.0 | 0.0 | 0.00 | 0.00 | 0.00 | 83 | 1020.1 |
| 20260831060629 | 49 | 135 | 0.0 | 0.0 | 0.00 | 0.00 | 0.00 | 83 | 1020.1 |
| 20260831060531 | 49 | 135 | 0.0 | 0.0 | 0.00 | 0.00 | 0.00 | 82 | 1020.1 |
| 20260831055430 | 50 | 135 | 0.0 | 0.0 | 0.00 | 0.00 | 0.00 | 82 | 1020.2 |
| 20260831053432 | 50 | 135 | 0.0 | 0.0 | 0.00 | 0.00 | 0.00 | 81 | 1020.4 |
| 20260831052432 | 51 | 135 | 0.0 | 0.0 | 0.00 | 0.00 | 0.00 | 79 | 1020.4 |
| 20260831050430 | 51 | 135 | 0.0 | 0.0 | 0.00 | 0.00 | 0.00 | 77 | 1020.4 |
| 20260831045432 | 52 | 135 | 0.0 | 0.0 | 0.00 | 0.00 | 0.00 | 77 | 1020.4 |
| 20260831043630 | 53 | 135 | 0.0 | 0.0 | 0.00 | 0.00 | 0.00 | 76 | 1020.4 |
| 20260831042632 | 53 | 135 | 0.0 | 0.0 | 0.00 | 0.00 | 0.00 | 74 | 1020.3 |
| 20260831040631 | 55 | 135 | 0.0 | 0.0 | 0.00 | 0.00 | 0.00 | 72 | 1020.3 |
| 20260831035630 | 55 | 135 | 0.0 | 0.0 | 0.00 | 0.00 | 0.00 | 71 | 1020.1 |
| 20260831034632 | 56 | 135 | 0.0 | 0.0 | 0.00 | 0.00 | 0.00 | 71 | 1020.2 |
| 20260831033729 | 56 | 135 | 0.0 | 0.0 | 0.00 | 0.00 | 0.00 | 70 | 1019.9 |
| 20260831032732 | 57 | 135 | 0.0 | 0.0 | 0.00 | 0.00 | 0.00 | 70 | 1019.9 |
| 20260831032632 | 57 | 135 | 0.0 | 0.0 | 0.00 | 0.00 | 0.00 | 70 | 1019.9 |
| 20260831031630 | 57 | 135 | 0.0 | 0.0 | 0.00 | 0.00 | 0.00 | 70 | 1019.8 |
| 20260831030633 | 58 | 135 | 0.0 | 0.0 | 0.00 | 0.00 | 0.00 | 69 | 1019.7 |
| 20260831025632 | 59 | 135 | 0.0 | 0.0 | 0.00 | 0.00 | 0.00 | 68 | 1019.6 |
| 20260831024631 | 60 | 135 | 0.0 | 0.0 | 0.00 | 0.00 | 0.00 | 66 | 1019.6 |
| 20260831023630 | 61 | 135 | 0.0 | 0.0 | 0.00 | 0.00 | 0.00 | 64 | 1019.6 |
| 20260831022632 | 62 | 135 | 0.0 | 0.0 | 0.00 | 0.00 | 0.00 | 61 | 1019.5 |
| 20260831021729 | 63 | 135 | 0.0 | 0.0 | 0.00 | 0.00 | 0.00 | 60 | 1019.5 |
| 20260831020730 | 65 | 135 | 0.0 | 0.0 | 0.00 | 0.00 | 0.00 | 56 | 1019.5 |
| 20260831015731 | 67 | 135 | 0.0 | 0.0 | 0.00 | 0.00 | 0.00 | 54 | 1019.5 |
| 20260831015631 | 67 | 135 | 0.0 | 0.0 | 0.00 | 0.00 | 0.00 | 54 | 1019.5 |
| 20260831013731 | 69 | 225 | 0.0 | 0.0 | 0.00 | 0.00 | 0.00 | 47 | 1019.3 |
| 20260831012747 | 70 | 180 | 0.0 | 0.0 | 0.00 | 0.00 | 0.00 | 44 | 1019.3 |
| 20260831011733 | 72 | 243 | 3.0 | 5.0 | 0.00 | 0.00 | 0.00 | 42 | 1019.3 |
| 20260831011632 | 72 | 260 | 2.0 | 6.0 | 0.00 | 0.00 | 0.00 | 41 | 1019.3 |
| 20260831005632 | 76 | 157 | 0.0 | 0.0 | 0.00 | 0.00 | 0.00 | 38 | 1019.3 |
| 20260831004632 | 76 | 231 | 2.0 | 4.0 | 0.00 | 0.00 | 0.00 | 36 | 1019.3 |
| 20260831003731 | 77 | 251 | 1.0 | 5.0 | 0.00 | 0.00 | 0.00 | 35 | 1019.3 |
| 20260831002730 | 77 | 225 | 0.0 | 2.0 | 0.00 | 0.00 | 0.00 | 35 | 1019.2 |
| 20260831002631 | 77 | 241 | 1.0 | 4.0 | 0.00 | 0.00 | 0.00 | 35 | 1019.3 |
| 20260831001631 | 77 | 251 | 2.0 | 3.0 | 0.00 | 0.00 | 0.00 | 36 | 1019.3 |
| 20260831000631 | 77 | 274 | 1.0 | 4.0 | 0.00 | 0.00 | 0.00 | 34 | 1019.3 |
| 20260830235632 | 77 | 178 | 1.0 | 3.0 | 0.00 | 0.00 | 0.00 | 32 | 1019.2 |
| 20260830235531 | 77 | 157 | 0.0 | 3.0 | 0.00 | 0.00 | 0.00 | 33 | 1019.3 |
| 20260830234630 | 78 | 249 | 3.0 | 5.0 | 0.00 | 0.00 | 0.00 | 33 | 1019.3 |
| 20260830234532 | 78 | 214 | 3.0 | 6.0 | 0.00 | 0.00 | 0.00 | 33 | 1019.3 |
| 20260830233530 | 78 | 309 | 2.0 | 4.0 | 0.00 | 0.00 | 0.00 | 32 | 1019.3 |
| 20260830232629 | 78 | 268 | 1.0 | 6.0 | 0.00 | 0.00 | 0.00 | 31 | 1019.3 |
| 20260830232531 | 78 | 267 | 3.0 | 7.0 | 0.00 | 0.00 | 0.00 | 32 | 1019.3 |
| 20260830231532 | 79 | 217 | 2.0 | 3.0 | 0.00 | 0.00 | 0.00 | 30 | 1019.3 |
| 20260830231430 | 79 | 317 | 3.0 | 6.0 | 0.00 | 0.00 | 0.00 | 30 | 1019.4 |
| 20260830230432 | 78 | 306 | 0.0 | 4.0 | 0.00 | 0.00 | 0.00 | 33 | 1019.3 |
| 20260830224430 | 78 | 195 | 3.0 | 7.0 | 0.00 | 0.00 | 0.00 | 35 | 1019.6 |
| 20260830224331 | 78 | 246 | 5.0 | 10.0 | 0.00 | 0.00 | 0.00 | 34 | 1019.6 |
| 20260830223329 | 78 | 236 | 3.0 | 5.0 | 0.00 | 0.00 | 0.00 | 35 | 1019.5 |
| 20260830221332 | 79 | 331 | 3.0 | 7.0 | 0.00 | 0.00 | 0.00 | 34 | 1019.8 |
| 20260830215432 | 78 | 314 | 2.0 | 5.0 | 0.00 | 0.00 | 0.00 | 36 | 1019.9 |
| 20260830214531 | 78 | 225 | 3.0 | 7.0 | 0.00 | 0.00 | 0.00 | 37 | 1020.1 |
| 20260830213629 | 78 | 208 | 2.0 | 5.0 | 0.00 | 0.00 | 0.00 | 37 | 1020.1 |
| 20260830212630 | 77 | 286 | 0.0 | 1.0 | 0.00 | 0.00 | 0.00 | 38 | 1020.1 |
| 20260830211630 | 77 | 202 | 1.0 | 5.0 | 0.00 | 0.00 | 0.00 | 38 | 1020.2 |
| 20260830211531 | 77 | 212 | 1.0 | 4.0 | 0.00 | 0.00 | 0.00 | 37 | 1020.2 |
| 20260830210630 | 78 | 192 | 3.0 | 7.0 | 0.00 | 0.00 | 0.00 | 36 | 1020.1 |
| 20260830204631 | 78 | 274 | 2.0 | 6.0 | 0.00 | 0.00 | 0.00 | 38 | 1020.1 |
| 20260830203729 | 78 | 270 | 2.0 | 5.0 | 0.00 | 0.00 | 0.00 | 38 | 1020.1 |
| 20260830202731 | 78 | 238 | 2.0 | 4.0 | 0.00 | 0.00 | 0.00 | 39 | 1020.1 |
| 20260830201729 | 77 | 225 | 0.0 | 0.0 | 0.00 | 0.00 | 0.00 | 39 | 1020.1 |
| 20260830200730 | 77 | 218 | 2.0 | 6.0 | 0.00 | 0.00 | 0.00 | 39 | 1020.1 |